SCP
0 -0 -0 0 -0 -0 -0 0 0 0 0 0 0 0 0 0 0 0 0 0 0 0
0 0 0 0 0 0 -0 0 0 0 0 0 0 0 0 0 0 0 0 0 0 0
0 0 0 0 0 0 0 0 0 0 0 0 0 0 0 0 0 0 0 0 0 0
0 0 0 0 0 0 0 0 0 0 0 0 0 0 0 0 0 0 0 0 0 0
-0 0 0 0 0 0 0 0 0 0 0 0 0 0 0 0 0 0 0 0 0 0
0 0 0 0 0 0 0 0 0 0 0 0 0 0 0 0 0 0 0 0 0 0
0 -0 -0 -0 -0 -0 -0 -0 -0 0 0 0 0 0 0 0 0 0 0 0 0 0
0 -0 -0 -0 -0 -0 -0 -0 -0 -0 0 0 0 0 0 0 0 0 0 0 0 0
0 -0 -0 -0 -0 -0 0 0 -0 -0 -0 0 0 0 0 0 0 0 0 0 0 0
0 0 -0 0 -0 -0 0 0 -0 0 0 0 0 -0 -0 -0 0 0 0 0 0 0
-0 -0 -0 0 -0 0 0 0 0 -0 -0 -0 -0 -0 -0 -0 0 0 0 -0 0 0
0 0 0 -0 -0 0 0 0 0 0 -0 -0 -0 -0 -0 -0 -0 -0 -0 0 -0 -0
0 0 -0 -0 -0 0 -0 -0 -0 -0 0 -0 0 -0 -0 -0 0 -0 -0 -0 -0 -0
0 -0 -0 0 0 0 0 -0 -0 -0 0 -0 -0 0 -0 -0 -0 -0 -0 -0 -0 0
Wind_Speed_500mb
47 48 49 50 52 51 52 54 53 53 55 56 56 58 63 66 63 67 71 75 80 84
45 46 43 44 44 47 48 51 51 53 56 55 56 57 58 62 59 60 66 70 72 81
43 43 43 43 44 42 43 46 47 47 49 53 54 56 58 59 57 55 60 62 67 70
44 43 42 41 42 41 40 40 41 42 44 47 51 53 58 59 60 60 60 60 64 69
47 48 47 43 41 39 39 39 40 38 37 41 43 46 51 54 56 63 67 65 66 70
49 53 51 49 46 44 42 42 39 37 41 43 42 45 50 53 55 61 65 68 70 71
40 43 45 46 47 51 52 48 45 46 49 51 49 44 41 35 36 41 51 52 53 60
33 32 33 36 40 48 56 61 62 62 62 60 53 45 38 32 33 28 20 11 24 33
32 35 40 42 42 42 49 55 60 69 74 73 61 44 43 44 57 55 40 26 9 16
31 34 40 43 44 49 55 56 59 62 70 79 79 69 65 67 70 72 72 60 47 30
34 35 35 38 42 45 52 58 62 68 75 74 77 76 77 78 82 86 90 89 77 67
32 34 37 42 44 47 51 57 66 68 73 79 80 82 80 73 81 87 92 92 92 85
30 34 43 48 48 50 55 60 64 70 75 76 79 80 82 83 85 85 84 84 86 87
31 35 41 47 50 54 57 58 63 68 73 77 77 77 78 80 82 81 82 86 86 82
Wind_Direction_500mb
331 331 329 327 324 322 318 314 307 300 294 288 284 282 279 276 264 256 254 249 246 245
341 337 335 331 329 328 324 320 316 309 304 298 289 284 281 277 273 263 259 259 251 246
351 349 347 341 338 341 337 333 328 319 310 305 299 290 283 278 275 271 262 261 263 253
5 2 1 355 354 352 348 343 337 330 320 309 303 298 290 282 279 272 266 259 257 260
21 19 15 9 6 3 360 357 351 346 338 328 319 309 300 292 280 275 271 263 256 254
28 26 23 21 20 18 15 14 8 4 1 354 342 328 313 303 295 286 281 275 261 253
30 35 32 31 34 37 36 33 30 26 24 16 4 351 339 330 314 291 282 278 261 254
25 31 38 40 40 44 45 44 42 40 38 30 20 16 13 19 21 1 342 250 243 242
39 41 45 42 36 38 47 48 48 47 45 43 36 31 39 43 49 50 48 57 77 222
34 38 43 46 45 48 51 50 48 48 47 47 44 42 49 54 55 56 56 53 56 63
38 40 48 52 50 49 50 51 51 50 50 49 50 44 42 51 56 56 57 55 54 56
44 47 55 57 55 54 54 52 51 50 49 47 46 42 44 44 49 52 56 56 56 56
48 49 56 58 58 58 57 56 54 51 49 48 44 42 39 39 44 49 52 52 54 56
50 53 56 59 58 58 57 56 54 52 50 47 46 41 40 38 39 42 46 49 48 51
Wind_Speed_850mb
47 48 49 50 52 51 52 54 53 53 55 56 56 58 63 66 63 67 71 75 80 84
45 46 43 44 44 47 48 51 51 53 56 55 56 57 58 62 59 60 66 70 72 81
43 43 43 43 44 42 43 46 47 47 49 53 54 56 58 59 57 55 60 62 67 70
44 43 42 41 42 41 40 40 41 42 44 47 51 53 58 59 60 60 60 60 64 69
47 48 47 43 41 39 39 39 40 38 37 41 43 46 51 54 56 63 67 65 66 70
49 53 51 49 46 44 42 42 39 37 41 43 42 45 50 53 55 61 65 68 70 71
40 43 45 46 47 51 52 48 45 46 49 51 49 44 41 35 36 41 51 52 53 60
33 32 33 36 40 48 56 61 62 62 62 60 53 45 38 32 33 28 20 11 24 33
32 35 40 42 42 42 49 55 60 69 74 73 61 44 43 44 57 55 40 26 9 16
31 34 40 43 44 49 55 56 59 62 70 79 79 69 65 67 70 72 72 60 47 30
34 35 35 38 42 45 52 58 62 68 75 74 77 76 77 78 82 86 90 89 77 67
32 34 37 42 44 47 51 57 66 68 73 79 80 82 80 73 81 87 92 92 92 85
30 34 43 48 48 50 55 60 64 70 75 76 79 80 82 83 85 85 84 84 86 87
31 35 41 47 50 54 57 58 63 68 73 77 77 77 78 80 82 81 82 86 86 82
Wind_Direction_850mb
331 331 329 327 324 322 318 314 307 300 294 288 284 282 279 276 264 256 254 249 246 245
341 337 335 331 329 328 324 320 316 309 304 298 289 284 281 277 273 263 259 259 251 246
351 349 347 341 338 341 337 333 328 319 310 305 299 290 283 278 275 271 262 261 263 253
5 2 1 355 354 352 348 343 337 330 320 309 303 298 290 282 279 272 266 259 257 260
21 19 15 9 6 3 360 357 351 346 338 328 319 309 300 292 280 275 271 263 256 254
28 26 23 21 20 18 15 14 8 4 1 354 342 328 313 303 295 286 281 275 261 253
30 35 32 31 34 37 36 33 30 26 24 16 4 351 339 330 314 291 282 278 261 254
25 31 38 40 40 44 45 44 42 40 38 30 20 16 13 19 21 1 342 250 243 242
39 41 45 42 36 38 47 48 48 47 45 43 36 31 39 43 49 50 48 57 77 222
34 38 43 46 45 48 51 50 48 48 47 47 44 42 49 54 55 56 56 53 56 63
38 40 48 52 50 49 50 51 51 50 50 49 50 44 42 51 56 56 57 55 54 56
44 47 55 57 55 54 54 52 51 50 49 47 46 42 44 44 49 52 56 56 56 56
48 49 56 58 58 58 57 56 54 51 49 48 44 42 39 39 44 49 52 52 54 56
50 53 56 59 58 58 57 56 54 52 50 47 46 41 40 38 39 42 46 49 48 51